x

Naubinway, Mi (nabm4) Weather Station

9:40pm - Tue 16th Sep 2014 All times are CDT. -5 hours from GMT.

  • Wind
    7mph, 9mph gusts
  • Air Temp 55°f
  • Sea Pressure 1015.2mb
  • Naubinway, Mi
  • Naubinway, Mi

More Historic Weather Station data

Upgrade to MSW Pro to gain access to the past 30 days of data for over 8000 Wavebouys and Weather Stations around the globe.

Join Pro

Comparision Forecast

View Surf forecast
   
Tue 09/16 9:40pm 7 9 mph 1015.2mb 55f
9:30pm 6 8 mph 1015.2mb 55f
9:20pm 5 7 mph 1015.2mb 56f
9:10pm 5 6 mph 1015.2mb 56f
9:05pm 2 7 mph 1015.2mb 56f
9:00pm 2 3 mph 1015.2mb 56f
8:40pm 3 6 mph 1015.2mb 56f
8:30pm 5 6 mph 1015.2mb 56f
8:20pm 5 7 mph 1015.2mb 56f
8:10pm 5 7 mph 1015.2mb 57f
8:04pm 5 21 mph 1015.2mb 57f
8:00pm 5 9 mph 1015.2mb 57f
7:40pm 8 15 mph 1014.9mb 59f
7:30pm 9 21 mph 1014.6mb 59f
7:20pm 15 21 mph 1014.6mb 59f
7:10pm 14 22 mph 1014.6mb 59f
7:04pm 15 26 mph 1014.6mb 59f
7:00pm 15 22 mph 1014.6mb 59f
6:40pm 17 26 mph 1014.6mb 59f
6:30pm 16 25 mph 1014.2mb 59f
6:20pm 15 26 mph 1014.6mb 59f
6:10pm 17 24 mph 1014.6mb 59f
6:04pm 18 28 mph 1014.6mb 59f
6:00pm 17 28 mph 1014.6mb 59f
5:40pm 16 25 mph 1014.9mb 59f
5:30pm 16 25 mph 1014.6mb 59f
5:20pm 20 28 mph 1014.9mb 59f
5:10pm 18 28 mph 1014.9mb 59f
5:03pm 18 29 mph 1014.6mb 59f
5:00pm 17 29 mph 1014.9mb 59f
4:40pm 17 26 mph 1014.9mb 59f
4:30pm 17 28 mph 1015.2mb 60f
4:20pm 16 26 mph 1015.2mb 59f
4:10pm 18 28 mph 1015.2mb 59f
4:03pm 20 25 mph 1015.2mb 60f
4:00pm 17 25 mph 1015.6mb 60f
3:40pm 20 28 mph 1015.6mb 58f
3:30pm 21 26 mph 1015.6mb 59f
3:20pm 22 29 mph 1015.6mb 59f
3:10pm 22 28 mph 1015.9mb 59f
3:02pm 22
mph
1015.6mb 58f
3:00pm 21 30 mph 1015.6mb 58f
2:40pm 22 29 mph 1015.9mb 59f
2:38pm 18 29 mph 1015.9mb 59f
2:30pm 22 26 mph 1015.9mb 58f
2:20pm 20 28 mph 1015.9mb 58f
2:10pm 22 25 mph 1015.9mb 58f
2:02pm 22 28 mph 1015.9mb 58f
2:00pm 22 28 mph 1015.9mb 58f
1:40pm 21 24 mph 1015.9mb 58f
1:30pm 22 24 mph 1015.9mb 58f
1:20pm 20 25 mph 1015.9mb 58f
1:10pm 21 24 mph 1016.3mb 58f
1:02pm 21 25 mph 1016.3mb 58f
1:00pm 21 24 mph 1016.3mb 58f
12:40pm 21 25 mph 1016.6mb 57f
12:30pm 22 25 mph 1016.6mb 57f
12:20pm 21 25 mph 1016.6mb 57f
12:10pm 22 25 mph 1016.9mb 57f
12:01pm 21 24 mph 1016.9mb 57f
12:00pm 21 24 mph 1016.9mb 57f
11:40am 22 24 mph 1016.9mb 57f
11:30am 18 22 mph 1017.3mb 57f
11:20am 20 22 mph 1017.3mb 57f
11:10am 20 23 mph 1017.3mb 57f
11:01am 18 22 mph 1017.3mb 57f
11:00am 18 22 mph 1017.6mb 57f
10:40am 16 20 mph 1017.6mb 57f
10:30am 14 18 mph 1017.6mb 57f
10:20am 13 17 mph 1017.9mb 57f
10:10am 9 16 mph 1017.9mb 58f
10:00am 10 14 mph 1017.9mb 58f
9:40am 7 10 mph 1018.3mb 56f
9:30am 7 10 mph 1018.3mb 55f
9:20am 7 9 mph 1018.6mb 54f
9:10am 3 7 mph 1018.3mb 53f
9:00am 3 6 mph 1018.6mb 53f
8:40am 1 6 mph 1018.6mb 51f
8:30am 3 7 mph 1018.6mb 49f
8:20am 5 6 mph 1018.6mb 49f
8:10am 5 6 mph 1018.6mb 49f
8:00am 2 5 mph 1018.6mb 49f
7:40am 5 6 mph 1018.6mb 46f
7:30am 5 6 mph 1019mb 45f
7:20am 3 6 mph 1019mb 45f
7:10am 1 5 mph 1019mb 45f
7:00am 3 6 mph 1018.6mb 44f
6:42am 5 7 mph 1019mb 42f
6:40am 5 6 mph 1019mb 42f
6:30am 2 6 mph 1019mb 42f
6:20am 5 7 mph 1019mb 42f
6:10am 3 7 mph 1019mb 42f
6:00am 5 7 mph 1018.6mb 43f
5:41am 6 8 mph 1018.6mb 43f
5:40am 6 8 mph 1018.6mb 43f
5:30am 3 6 mph 1018.6mb 42f
5:20am 5 8 mph 1018.6mb 43f
5:10am 6 8 mph 1018.6mb 43f
5:00am 6 8 mph 1018.6mb 43f
4:41am 6 8 mph 1018.6mb 43f
4:40am 6 8 mph 1018.6mb 43f
4:30am 6 8 mph 1018.6mb 43f
4:20am 6 8 mph 1018.6mb 43f
4:10am 6 8 mph 1018.6mb 43f
4:00am 6 8 mph 1018.6mb 44f
3:40am 5 7 mph 1018.6mb 44f
3:30am 5 8 mph 1018.6mb 44f
3:20am 7 8 mph 1018.6mb 45f
3:10am 7 8 mph 1018.6mb 45f
3:00am 5 7 mph 1018.6mb 45f
2:40am 3 5 mph 1018.6mb 45f
2:30am 3 7 mph 1018.6mb 46f
2:20am 3 6 mph 1019mb 46f
2:10am 3 8 mph 1018.6mb 46f
2:00am 5 7 mph 1019mb 46f
1:40am 6 7 mph 1019mb 46f
1:30am 5 7 mph 1018.6mb 46f
1:20am 3 7 mph 1018.6mb 46f
1:10am 5 6 mph 1018.6mb 46f
1:00am 5 7 mph 1019mb 46f
12:40am 3 6 mph 1019mb 47f
12:30am 3 5 mph 1019mb 47f
12:23am 3 6 mph 1018.6mb 47f
12:20am 3 5 mph 1019mb 47f
12:10am 3 5 mph 1019mb 48f
12:00am 3 5 mph 1018.6mb 48f
Mon 09/15 11:40pm 5 6 mph 1018.6mb 49f
11:30pm 3 5 mph 1019mb 49f
11:22pm 3 6 mph 1019mb 49f
11:20pm 3 5 mph 1019mb 49f
11:10pm 3 5 mph 1019mb 49f
11:00pm 2 5 mph 1019mb 49f
10:40pm 2 3 mph 1018.6mb 49f
10:30pm 3 6 mph 1018.6mb 50f
10:22pm 3 10 mph 1019mb 50f
10:20pm 3 6 mph 1019mb 50f
10:10pm 3 7 mph 1018.6mb 51f
10:00pm 3 7 mph 1018.6mb 51f
9:50pm 6 10 mph 1018.6mb 51f
9:40pm 6 8 mph 1018.6mb 51f
9:30pm 7 9 mph 1018.6mb 51f
9:21pm 6 10 mph 1018.6mb 52f
9:20pm 6 8 mph 1018.6mb 52f
9:10pm 6 8 mph 1018.6mb 52f
9:00pm 7 8 mph 1019mb 53f
8:50pm 7 9 mph 1019mb 52f
8:40pm 7 10 mph 1019mb 53f
8:30pm 7 9 mph 1018.6mb 53f
8:21pm 6 10 mph 1018.6mb 53f
8:20pm 6 8 mph 1018.6mb 53f
8:10pm 6 8 mph 1018.6mb 53f
8:00pm 7 10 mph 1018.6mb 53f
7:50pm 7 9 mph 1018.6mb 54f
7:40pm 8 10 mph 1018.3mb 54f
7:30pm 7 9 mph 1018.3mb 54f
7:21pm 6 8 mph 1018.3mb 54f
7:20pm 6 8 mph 1018.3mb 54f
7:10pm 5 7 mph 1018.3mb 54f
7:00pm 5 7 mph 1017.9mb 55f
6:50pm 5 7 mph 1017.9mb 55f
6:40pm 5 6 mph 1017.9mb 56f
6:30pm 5 8 mph 1017.9mb 57f
6:20pm 7 13 mph 1017.9mb 58f
6:10pm 9 14 mph 1017.9mb 59f
6:00pm 9 13 mph 1017.9mb 60f
5:50pm 3 6 mph 1017.6mb 60f
5:40pm 6 10 mph 1017.6mb 59f
5:30pm 6 8 mph 1017.6mb 59f
5:20pm 9 20 mph 1017.6mb 58f
5:10pm 6 13 mph 1017.3mb 58f
5:00pm 7 14 mph 1017.6mb 57f
4:50pm 9 16 mph 1017.3mb 57f
4:40pm 9 16 mph 1017.3mb 57f
4:30pm 13 20 mph 1017.3mb 58f
4:20pm 13 15 mph 1017.3mb 59f
4:19pm 11 17 mph 1017.3mb 59f
4:10pm 10 13 mph 1017.3mb 59f
4:00pm 7 13 mph 1017.3mb 60f
3:50pm 5 10 mph 1017.3mb 61f
3:40pm 5 7 mph 1017.3mb 60f
3:30pm 5 17 mph 1017.3mb 58f
3:20pm 8 17 mph 1017.3mb 58f
3:19pm 11 22 mph 1017.3mb 58f
3:10pm 10 17 mph 1017.3mb 58f
3:00pm 14 17 mph 1017.6mb 58f
2:50pm 14 17 mph 1017.3mb 59f
2:40pm 13 18 mph 1017.3mb 59f
2:30pm 15 22 mph 1017.3mb 58f
2:20pm 15 16 mph 1017.3mb 58f
2:19pm 13 20 mph 1017.3mb 58f
2:10pm 8 17 mph 1017.6mb 58f
2:00pm 17 20 mph 1017.6mb 58f
1:50pm 11 16 mph 1017.6mb 58f
1:40pm 16 17 mph 1017.6mb 58f
1:30pm 11 15 mph 1017.6mb 58f
1:20pm 11 18 mph 1017.6mb 60f
1:18pm 10 18 mph 1017.9mb 61f
1:10pm 5 7 mph 1017.9mb 60f
1:00pm 2 5 mph 1017.9mb 61f
12:50pm 1 8 mph 1017.9mb 62f
12:40pm 7 8 mph 1018.3mb 60f
12:30pm 8 14 mph 1017.9mb 59f
12:20pm 7 10 mph 1017.9mb 60f
12:18pm 8 14 mph 1017.6mb 61f
12:10pm 8 14 mph 1017.9mb 60f
12:00pm 6 13 mph 1017.9mb 59f
11:50am 7 14 mph 1018.3mb 59f
11:40am 5 9 mph 1018.6mb 60f
11:30am 9 14 mph 1018.3mb 59f
11:20am 6 11 mph 1018.3mb 59f
11:17am 5 15 mph 1018.3mb 58f
11:10am 8 15 mph 1018.3mb 58f
11:00am 8 13 mph 1018.3mb 58f
10:50am 9 13 mph 1018.3mb 57f
10:40am 10 15 mph 1018.3mb 57f
10:30am 8 14 mph 1018.3mb 56f
10:20am 7 10 mph 1018.3mb 56f
10:17am 6 14 mph 1018.3mb 56f
10:10am 6 13 mph 1018.6mb 55f
10:00am 9 14 mph 1018.6mb 55f
9:50am 9 13 mph 1018.3mb 54f
9:40am 9 11 mph 1018.3mb 54f
9:30am 10 11 mph 1018.6mb 53f
9:20am 7 10 mph 1018.6mb 53f
9:17am 7 13 mph 1018.6mb 53f
9:10am 9 13 mph 1018.6mb 52f
9:00am 6 9 mph 1018.6mb 52f
8:50am 3 8 mph 1018.6mb 51f
8:40am 5 8 mph 1018.6mb 49f
8:30am 6 9 mph 1018.6mb 48f
8:20am 7 9 mph 1018.6mb 48f
8:16am 6 9 mph 1018.6mb 47f
8:10am 7 9 mph 1018.6mb 47f
8:00am 6 9 mph 1018.6mb 46f
7:50am 6 8 mph 1018.6mb 45f
7:40am 5 8 mph 1018.6mb 44f
7:30am 5 7 mph 1018.6mb 44f
7:20am 5 7 mph 1018.6mb 44f
7:16am 5 7 mph 1018.6mb 44f
7:10am 5 7 mph 1018.6mb 44f
7:00am 5 7 mph 1018.6mb 44f
6:50am 5 7 mph 1018.6mb 44f
6:40am 5 6 mph 1018.3mb 44f
6:30am 5 7 mph 1018.3mb 44f
6:20am 6
mph
1018.3mb 44f
6:15am 5 9 mph 1018.3mb 44f
6:10am 5 7 mph 1018.3mb 44f
6:00am 5 8 mph 1017.9mb 45f
5:50am 7 8 mph 1017.9mb 45f
5:40am 7 9 mph 1017.9mb 45f
5:30am 7 9 mph 1017.6mb 45f
5:20am 6 8 mph 1017.6mb 46f
5:15am 5 9 mph 1017.6mb 45f
5:10am 5 7 mph 1017.6mb 45f
5:00am 5 7 mph 1017.6mb 46f
4:50am 5 9 mph 1017.6mb 46f
4:40am 6 9 mph 1017.6mb 47f
4:30am 7 9 mph 1017.6mb 47f
4:20am 6 8 mph 1017.9mb 47f
4:15am 6 9 mph 1017.9mb 47f
4:10am 6 8 mph 1017.9mb 47f
4:00am 6 9 mph 1017.6mb 47f
3:50am 6 9 mph 1017.6mb 48f
3:40am 6 9 mph 1017.6mb 48f
3:30am 6 9 mph 1017.6mb 50f
3:20am 5 9 mph 1017.6mb 50f
3:14am 3 9 mph 1017.6mb 50f
3:10am 5 8 mph 1017.6mb 50f
3:00am 5 8 mph 1017.6mb 50f
2:50am 3 6 mph 1017.6mb 49f
2:40am 3 6 mph 1017.3mb 49f
2:30am 5 6 mph 1017.3mb 49f
2:20am 3 6 mph 1017.3mb 49f
2:14am 3 5 mph 1017.6mb 49f
2:10am 2 3 mph 1017.6mb 49f
2:00am 2 3 mph 1017.6mb 49f
1:50am 2 3 mph 1017.3mb 49f
1:40am 3 5 mph 1017.3mb 49f
1:30am 2 3 mph 1017.3mb 50f
1:20am 2 5 mph 1017.3mb 51f
1:13am 3 5 mph 1017.3mb 51f
1:10am 3 5 mph 1017.3mb 51f
1:00am 3
mph
1017.3mb 51f
12:50am 2 3 mph 1017.3mb 51f
12:40am 3
mph
1017.3mb 51f
12:30am 3 5 mph 1016.9mb 52f
12:20am 3 5 mph 1016.9mb 52f
12:13am 3 9 mph 1016.9mb 52f
12:10am 5 6 mph 1016.9mb 52f
12:00am 3 5 mph 1016.9mb 52f
Sun 09/14 11:50pm 3 5 mph 1016.9mb 53f
11:40pm 3 7 mph 1016.9mb 53f
11:30pm 6 9 mph 1016.9mb 54f
11:20pm 6 8 mph 1016.9mb 54f
11:13pm 7 17 mph 1016.9mb 55f
11:10pm 7 11 mph 1016.9mb 55f
11:00pm 7 14 mph 1016.9mb 55f
10:50pm 13 17 mph 1016.9mb 55f
10:40pm 10 14 mph 1016.9mb 56f
10:30pm 7 14 mph 1016.6mb 58f
10:20pm 8 16 mph 1016.6mb 58f
10:12pm 8 28 mph 1016.6mb 58f
10:10pm 9 17 mph 1016.6mb 58f
10:00pm 11 21 mph 1016.6mb 59f
9:50pm 15 26 mph 1016.6mb 59f
9:40pm 18 26 mph 1016.6mb 59f
9:30pm 14 25 mph 1016.6mb 59f
9:20pm 22 28 mph 1016.3mb 59f
9:12pm 18 29 mph 1016.6mb 59f
9:10pm 20 29 mph 1016.9mb 59f
9:00pm 23 28 mph 1016.6mb 59f
8:50pm 20 25 mph 1016.6mb 58f
8:40pm 18 31 mph 1016.9mb 58f
8:30pm 24 31 mph 1016.6mb 58f
8:20pm 20 31 mph 1016.9mb 57f
8:11pm 22
mph
1017.3mb 58f
8:10pm 22 36 mph 1016.9mb 58f
8:00pm 24 30 mph 1016.6mb 58f
7:50pm 21 29 mph 1017.3mb 57f
7:40pm 25 36 mph 1016.9mb 56f
7:30pm 24 36 mph 1017.3mb 58f
7:20pm 26 36 mph 1016.9mb 59f
7:11pm 29
mph
1016.6mb 59f
7:10pm 29 32 mph 1016.9mb 59f
7:00pm 26 33 mph 1016.9mb 59f
6:50pm 28 32 mph 1016.9mb 59f
6:40pm 26 36 mph 1016.9mb 58f
6:30pm 25 33 mph 1016.9mb 58f
6:20pm 26 33 mph 1017.3mb 58f
6:10pm 30 34 mph 1017.3mb 58f
6:00pm 25 36 mph 1017.3mb 58f
5:50pm 28 32 mph 1016.9mb 58f
5:40pm 26 33 mph 1017.3mb 58f
5:30pm 26 32 mph 1017.3mb 58f
5:20pm 26 31 mph 1017.3mb 58f
5:10pm 25 32 mph 1017.3mb 58f
5:00pm 26 34 mph 1017.6mb 58f
4:50pm 28 33 mph 1017.9mb 58f
4:40pm 29 33 mph 1017.3mb 58f
4:30pm 29 34 mph 1017.3mb 58f
4:20pm 28 32 mph 1017.6mb 58f
4:10pm 28 32 mph 1017.9mb 58f
4:09pm 26
mph
1017.6mb 58f
4:00pm 25 33 mph 1017.9mb 58f
3:50pm 25 33 mph 1018.3mb 58f
3:40pm 26 34 mph 1017.9mb 58f
3:30pm 29 34 mph 1018.3mb 58f
3:20pm 28 34 mph 1018.3mb 58f
3:10pm 25 33 mph 1018.6mb 58f
3:09pm 26
mph
1018.6mb 58f
3:00pm 28 33 mph 1018.6mb 58f
2:50pm 25 30 mph 1018.6mb 58f
2:40pm 22 32 mph 1018.6mb 58f
2:30pm 25 32 mph 1018.6mb 58f
2:20pm 26 31 mph 1018.6mb 58f
2:10pm 21 31 mph 1019mb 58f
2:09pm 18
mph
1019mb 57f
2:00pm 25 31 mph 1019.3mb 57f
1:47pm 21 30 mph 1019.3mb 57f
1:40pm 23 31 mph 1019.6mb 57f
1:30pm 20 30 mph 1020mb 57f
1:20pm 20 29 mph 1020mb 57f
1:10pm 23 30 mph 1020mb 57f
1:08pm 25
mph
1020mb 57f
1:00pm 18 29 mph 1020.3mb 57f
12:50pm 21 31 mph 1020.3mb 57f
12:40pm 24 29 mph 1020mb 57f
12:39pm 24 29 mph 1020mb 58f
12:30pm 18 30 mph 1020.3mb 58f
12:20pm 17 31 mph 1020mb 58f
12:10pm 25 30 mph 1020mb 58f
12:08pm 25
mph
1020.3mb 58f
12:00pm 18 30 mph 1020.3mb 58f
11:50am 18 28 mph 1020.3mb 58f
11:40am 25 29 mph 1020.3mb 58f
11:38am 21 29 mph 1020mb 58f
11:30am 16 25 mph 1020.7mb 58f
11:20am 16 25 mph 1020.7mb 57f
11:10am 16 24 mph 1020.7mb 57f
11:07am 16 25 mph 1021mb 57f
11:00am 17 25 mph 1020.7mb 57f
10:50am 17 24 mph 1020.7mb 57f
10:40am 15 23 mph 1021mb 57f
10:30am 16 24 mph 1021.3mb 56f
10:20am 11 21 mph 1021.3mb 56f
10:10am 14 22 mph 1021.7mb 56f
10:07am 14 24 mph 1021.7mb 56f
10:00am 15 22 mph 1021.3mb 56f
9:50am 15 24 mph 1021.7mb 56f
9:40am 17 23 mph 1021.7mb 56f
9:30am 17 23 mph 1021.7mb 57f
9:20am 11 22 mph 1021.7mb 57f
9:10am 15 24 mph 1022mb 56f
9:06am 15 26 mph 1022mb 56f
9:00am 18 22 mph 1022mb 56f
8:50am 16 22 mph 1022mb 56f
8:40am 14 22 mph 1022mb 56f
8:20am 15 25 mph 1022mb 56f
8:10am 16 26 mph 1022.4mb 56f
8:06am 18 25 mph 1022mb 56f
8:00am 21 25 mph 1022mb 56f
7:50am 18 23 mph 1022.4mb 56f
7:40am 13 17 mph 1022.4mb 55f
7:30am 2 9 mph 1022.7mb 50f
7:20am 5 10 mph 1022.7mb 51f
7:10am 8 11 mph 1022.7mb 52f
7:06am 7 14 mph 1022.7mb 52f
7:00am 8 13 mph 1022.7mb 51f
6:50am 10 14 mph 1022.7mb 51f
6:40am 9 13 mph 1022.7mb 51f
6:30am 5 7 mph 1023mb 49f
6:20am 7 9 mph 1023mb 50f
6:10am 7 8 mph 1023mb 50f
6:05am 7 11 mph 1023mb 50f
6:00am 5 8 mph 1023mb 49f
5:50am 5 9 mph 1023mb 50f
5:40am 9 11 mph 1023mb 51f
5:30am 9 11 mph 1023mb 51f
5:20am 9 11 mph 1023.4mb 50f
5:10am 8 10 mph 1023.4mb 49f
5:05am 5 9 mph 1023.4mb 49f
5:00am 3
mph
1023.7mb 49f
4:50am 3 5 mph 1023.7mb 49f
4:40am 5 8 mph 1023.7mb 49f
4:30am 5 6 mph 1024mb 49f
4:20am 5 7 mph 1023.7mb 50f
4:10am 3 9 mph 1024mb 50f
4:04am 3 16 mph 1024mb 51f
4:00am 6 11 mph 1024mb 51f
3:50am 3 10 mph 1024mb 52f
3:40am 7 11 mph 1024mb 53f
3:30am 10 15 mph 1024mb 54f
3:20am 14 16 mph 1023.7mb 53f
3:04am 7 15 mph 1024mb 52f
3:00am 8 15 mph 1024mb 52f
2:50am 8 10 mph 1024mb 52f
2:40am 5 8 mph 1024mb 51f
2:30am 6 7 mph 1024.4mb 49f
2:20am 3 6 mph 1024.4mb 49f
2:10am 5 6 mph 1024.7mb 49f
2:04am 3 5 mph 1024.7mb 49f
2:00am 3 5 mph 1024.7mb 49f
1:50am 3 5 mph 1024.7mb 49f
1:40am 2 3 mph 1024.7mb 49f
1:30am 2 3 mph 1024.7mb 49f
1:20am 3 5 mph 1024.7mb 50f
1:10am 2 3 mph 1024.7mb 49f
1:03am 2 5 mph 1024.7mb 49f
1:00am 2 3 mph 1024.7mb 49f
12:50am 1 2 mph 1024.7mb 49f
12:40am 1 5 mph 1024.7mb 49f
12:30am 3 5 mph 1024.7mb 49f
12:20am 2 3 mph 1024.7mb 49f
12:10am 2 3 mph 1024.7mb 49f
12:03am 2 5 mph 1024.7mb 50f
12:00am 2 5 mph 1025.1mb 50f
Sat 09/13 11:50pm 2 3 mph 1025.1mb 49f
11:40pm 2 3 mph 1025.1mb 50f
11:30pm 2 3 mph 1025.1mb 49f
11:20pm 3 5 mph 1025.1mb 50f
11:10pm 3 5 mph 1025.1mb 50f
11:02pm 3 6 mph 1029.1mb 50f
11:00pm 5 6 mph 1025.1mb 50f
10:50pm 5 6 mph 1025.1mb 50f
10:40pm 5
mph
1025.1mb 50f
10:30pm 2 5 mph 1025.1mb 51f
10:20pm 3 5 mph 1025.1mb 50f
10:10pm 2 6 mph 1025.1mb 50f
10:02pm 5 9 mph 1025.1mb 51f
10:00pm 3 6 mph 1025.1mb 51f
9:40pm 6 8 mph 1024.7mb 51f
9:30pm 6 7 mph 1024.7mb 51f
9:20pm 5 9 mph 1024.7mb 52f
9:10pm 7 9 mph 1024.7mb 52f
9:02pm 5 11 mph 1024.7mb 52f
9:00pm 7 10 mph 1024.7mb 52f
8:50pm 7 11 mph 1024.7mb 52f
8:40pm 5 8 mph 1024.7mb 52f
8:30pm 5 6 mph 1024.7mb 52f
8:20pm 2 5 mph 1024.7mb 51f
8:10pm 3 6 mph 1024.7mb 52f
8:01pm 5 11 mph 1024.7mb 51f
8:00pm 5 8 mph 1024.7mb 51f
7:50pm 7 8 mph 1024.7mb 52f
7:40pm 5 9 mph 1024.7mb 52f
7:30pm 5 8 mph 1024.7mb 52f
7:20pm 5 9 mph 1024.7mb 52f
7:10pm 5 11 mph 1024.4mb 52f
7:01pm 5 9 mph 1024.4mb 52f
7:00pm 5 9 mph 1024.4mb 52f
6:50pm 2 7 mph 1024.4mb 52f
6:40pm 2 5 mph 1024.4mb 52f
6:30pm 3
mph
1024.4mb 52f
6:20pm 2 3 mph 1024.4mb 52f
6:10pm 1 3 mph 1024.4mb 53f
6:00pm 2 5 mph 1024.4mb 53f
5:50pm 3 5 mph 1024.4mb 53f
5:40pm 3 5 mph 1024.4mb 53f
5:30pm 3 5 mph 1024.4mb 53f
5:20pm 3 6 mph 1024.4mb 53f
5:10pm 5 6 mph 1024.4mb 53f
5:00pm 5 6 mph 1024.4mb 53f
4:50pm 2 3 mph 1024.4mb 54f
4:40pm 3 5 mph 1024.4mb 54f
4:20pm 6 7 mph 1024mb 54f
4:10pm 1 5 mph 1024mb 55f
4:00pm 5 7 mph 1024mb 54f
3:50pm 6 8 mph 1024mb 54f
3:40pm 6 9 mph 1024mb 54f
3:30pm 5 9 mph 1024mb 54f
3:20pm 7 11 mph 1024mb 54f
3:10pm 8 11 mph 1024mb 54f
3:00pm 5 8 mph 1024mb 54f
2:50pm 6 9 mph 1024mb 53f
2:40pm 8 14 mph 1024mb 53f
2:30pm 8 13 mph 1024mb 54f
2:20pm 7 18 mph 1024mb 53f
2:10pm 11 15 mph 1024.4mb 53f
2:00pm 6 10 mph 1024mb 53f
1:50pm 8 18 mph 1024.4mb 53f
1:40pm 5 10 mph 1024.4mb 53f
1:30pm 7 10 mph 1024.4mb 52f
1:20pm 5 9 mph 1024.4mb 52f
1:19pm 5 18 mph 1024.4mb 52f
1:10pm 7 10 mph 1024.4mb 51f
1:00pm 7 13 mph 1024.4mb 51f
12:50pm 10 15 mph 1024.4mb 51f
12:40pm 7 13 mph 1024.7mb 50f
12:30pm 10 18 mph 1024.7mb 50f
12:20pm 9 17 mph 1024.7mb 49f
12:19pm 11 17 mph 1024.7mb 50f
12:10pm 8 15 mph 1024.7mb 49f
12:00pm 9 15 mph 1024.7mb 49f
11:50am 9 14 mph 1024.7mb 49f
11:40am 11 14 mph 1024.7mb 49f
11:30am 11 16 mph 1024.7mb 48f
11:20am 14 20 mph 1024.7mb 48f
11:19am 15 20 mph 1024.7mb 48f
11:00am 13 20 mph 1024.7mb 48f
10:50am 15 18 mph 1024.7mb 49f
10:40am 14 17 mph 1024.7mb 48f
10:30am 13 17 mph 1024.4mb 48f
10:20am 13 22 mph 1024.4mb 47f
10:18am 14 22 mph 1024.4mb 48f
10:10am 14 18 mph 1024.4mb 48f
10:00am 9 16 mph 1024.4mb 48f
9:50am 10 17 mph 1024.4mb 48f
9:40am 10 17 mph 1024mb 47f
9:30am 14 20 mph 1024.4mb 47f
9:20am 13 21 mph 1024mb 47f
9:18am 14 21 mph 1024.4mb 46f
9:10am 15 21 mph 1024mb 46f
9:00am 11 16 mph 1024mb 46f
8:50am 9 16 mph 1024mb 45f
8:40am 10 13 mph 1024mb 45f
8:30am 9 13 mph 1024mb 44f
8:20am 7 11 mph 1024mb 44f
8:17am 8 15 mph 1024mb 44f
8:10am 9 11 mph 1024mb 44f
8:00am 10 14 mph 1024mb 43f
7:50am 10 15 mph 1024mb 44f
7:40am 10 14 mph 1024mb 44f
7:30am 10 15 mph 1023.7mb 43f
7:20am 10 15 mph 1023.7mb 43f
7:17am 10 15 mph 1024mb 43f
7:10am 9 13 mph 1023.7mb 43f
7:00am 9 15 mph 1023.7mb 43f
6:50am 9 11 mph 1023.7mb 43f
6:40am 8 11 mph 1023.7mb 42f
6:30am 8 11 mph 1023.7mb 42f
6:20am 9 11 mph 1023.7mb 42f
6:17am 9 13 mph 1023.7mb 42f
6:10am 9 13 mph 1023.7mb 42f
6:00am 8 11 mph 1023.7mb 42f
5:40am 9 10 mph 1023.7mb 42f
5:30am 7 11 mph 1023.7mb 42f
5:20am 8 10 mph 1023.7mb 43f
5:16am 7 11 mph 1023.7mb 43f
5:10am 8 11 mph 1023.4mb 43f
5:00am 7 10 mph 1023.4mb 43f
4:50am 8 9 mph 1023.4mb 43f
4:40am 7 10 mph 1023.4mb 43f
4:30am 7 9 mph 1023.4mb 43f
4:20am 7 9 mph 1023.4mb 43f
4:16am 7 10 mph 1023.4mb 43f
4:10am 8 10 mph 1023.4mb 43f
4:00am 8 10 mph 1023.4mb 43f